星链-30602 (STARLINK-30602 )

导读

STARLINK-30602是美国SpaceX星链星座的成员,于2023年10月18日发射升空,归属美国所有。作为星链互联网卫星星座的一部分,它主要为全球提供低延迟、高速率的宽带互联网服务,承担为偏远地区、移动场景等提供网络覆盖的任务,进一步拓展了星链星座的全球服务覆盖能力。

Basic Information
目录编号:
58081
目录名称:
STARLINK-30602
国际标识:
2023-160G
轨道中心:
EARTH
卫星名称:
星链-30602
卫星全名:
星链-30602 (STARLINK-30602 )
卫星状态:
在轨 (已飞行1052 天)
发射日期:
2023-10-18 UTC
国别 :
美国 (US)
星等 :
--
Orbit Information
数据来源 国际轨道数据 AOE轨道数据
星历时间 2026-09-04T10:50:34+0800
6小时前
查看轨道信息
2026-09-03T23:00:00+0800
18小时前
查看轨道信息
半长轴 6861.157km 6861.162km
偏心率 0.0002351 0.0001999
轨道倾角 43.002° 42.999°
近地点辐角 274.340° 256.584°
升交点赤经 153.674° 156.459°
平近点角 85.718° 266.663°
近地点 481.406km 481.653km
远地点 484.634km 484.397km
周期 94.266分钟 94.266分钟
每日圈数 15.275899 15.275881
Detailed Information
固有亮度:
5
最大亮度:
0.3
卫星平台:
Starlink v2.0 mini
覆盖范围:
全球
运营商:
太空探索技术公司
运营商所在国:
美国
制造商(研发单位):
太空探索技术公司
制造商所在国:
美国
使用方式:
暂无
Satellite Introduction
星链(Starlink)计划是由太空探索技术公司(SpaceX)提出的一个巨型低轨卫星互联网星座项目,计划在2019年至2024年间在太空搭建由约1.2万颗卫星组成的“星链”网络,其中1584颗将部署在地球上空550千米处的近地轨道,并从2020年开始工作。该卫星仍在工作。
2D Orbit Map
3D Orbit Map
Orbit Altitude Analysis Chart
Orbit Inclination Analysis Chart
Orbit Comprehensive Analysis Chart
View Comprehensive Chart
Conjunction Data List
Event ID Objects TCA Miss Dist (km) Collision Risk Probability Collision Risk Index (CRI) Action
CDM_260905-060102-636505-808121
SIMSAT 1 (26365)
2026-09-05T
06:01:10+0000
0.396 km
远距离
2.396676E-4 高风险 0.83
CDM_260904-060405-808106-646621
2026-09-04T
06:04:52+0000
0.644 km
远距离
8.370351E-5 中风险 0.73
CDM_260905-120905-799405-808121
2026-09-05T
12:09:53+0000
0.473 km
远距离
6.024057E-5 中风险 0.71
CDM_260905-094805-799405-808121
2026-09-05T
09:48:40+0000
0.799 km
远距离
1.181667E-5 中风险 0.56
CDM_260904-175005-808106-646621
2026-09-04T
17:50:59+0000
1.211 km
极远距离
1.054556E-5 中风险 0.55
CDM_260827-215505-808106-163021
2026-08-27T
21:55:15+0000
1.225 km
极远距离
7.319017E-6 低风险 0.52
CDM_260904-043005-808106-646621
2026-09-04T
04:30:43+0000
2.006 km
极远距离
2.2101E-6 低风险 0.42
CDM_260905-081405-799405-808121
2026-09-05T
08:14:30+0000
1.386 km
极远距离
1.897579E-6 低风险 0.41
CDM_260904-192505-808106-646621
2026-09-04T
19:25:08+0000
2.175 km
极远距离
1.827484E-6 低风险 0.4
CDM_260827-184505-808106-261222
2026-08-27T
18:45:34+0000
2.705 km
极远距离
1.439785E-6 低风险 0.38